GW4386 Weather Reports


Display with metric or nautical units.
time (UTC)temp
F
wind
direction
speed
MPH
gust
MPH
rain 1hr
in
rain 24hr
in
rain mn
in
humidity
%
barometer
mb
20260904055556 63 197 7.0 15.0 0.00 0.02 0.00 87 1012.3
20260904055058 63 223 5.0 12.0 0.00 0.02 0.00 88 1012.4
20260904054601 63 209 5.0 11.0 0.00 0.02 0.00 88 1012.3
20260904054057 63 217 5.0 11.0 0.00 0.02 0.00 88 1012.5
20260904053557 63 223 5.0 11.0 0.00 0.02 0.00 88 1012.5
20260904053057 63 220 6.0 12.0 0.00 0.02 0.00 88 1012.5
20260904052558 63 223 3.0 15.0 0.00 0.02 0.00 88 1012.6
20260904052058 63 211 8.0 15.0 0.00 0.02 0.00 88 1012.8
20260904051558 63 212 2.0 10.0 0.00 0.02 0.00 88 1012.8
20260904051057 63 223 5.0 10.0 0.00 0.02 0.00 88 1012.7
20260904050557 63 210 5.0 10.0 0.00 0.02 0.00 88 1012.5
20260904050057 63 241 5.0 10.0 0.00 0.02 0.00 88 1012.6
20260904045557 63 197 3.0 9.0 0.00 0.02 0.00 88 1012.7
20260904045059 63 159 4.0 9.0 0.00 0.02 0.00 88 1012.6
20260904044601 62 220 4.0 10.0 0.00 0.02 0.00 88 1012.4
20260904044059 62 197 5.0 10.0 0.00 0.02 0.00 88 1012.4
20260904043557 62 200 3.0 9.0 0.00 0.02 0.00 88 1012.6
20260904043057 62 212 2.0 9.0 0.00 0.02 0.00 88 1012.7
20260904042557 62 146 3.0 7.0 0.00 0.02 0.00 88 1012.6
20260904042057 62 197 3.0 10.0 0.00 0.02 0.00 88 1012.7
20260904041557 62 176 2.0 7.0 0.00 0.02 0.00 88 1012.9
20260904041057 62 211 3.0 9.0 0.00 0.02 0.00 88 1013.0
20260904040601 62 199 4.0 9.0 0.00 0.02 0.00 88 1012.8
20260904040057 62 207 4.0 9.0 0.00 0.02 0.00 88 1012.7
20260904035557 62 177 4.0 9.0 0.00 0.02 0.00 88 1012.6
20260904035058 62 178 3.0 6.0 0.00 0.02 0.00 88 1012.6
20260904034609 62 198 1.0 7.0 0.00 0.02 0.00 88 1012.7
20260904034057 62 220 4.0 7.0 0.00 0.02 0.00 88 1012.7
20260904033558 62 221 3.0 7.0 0.00 0.02 0.00 88 1012.7
20260904033058 62 219 4.0 11.0 0.00 0.02 0.00 88 1012.7
20260904032557 62 194 4.0 11.0 0.00 0.02 0.00 88 1012.9
20260904032058 62 209 3.0 6.0 0.00 0.02 0.00 88 1012.8
20260904031556 62 195 2.0 7.0 0.00 0.02 0.00 88 1012.8
20260904031057 62 188 4.0 9.0 0.00 0.02 0.00 88 1012.9
20260904030601 62 202 5.0 9.0 0.00 0.02 0.00 88 1012.9
20260904030057 62 205 5.0 9.0 0.00 0.02 0.00 88 1013.0
20260904025559 62 200 4.0 9.0 0.00 0.02 0.00 88 1013.0
20260904025057 62 244 3.0 10.0 0.00 0.02 0.00 88 1013.0
20260904024559 62 213 5.0 10.0 0.00 0.02 0.00 88 1013.0
20260904024055 62 209 4.0 10.0 0.00 0.02 0.00 88 1013.0
20260904023556 62 246 3.0 12.0 0.00 0.02 0.00 88 1012.9
20260904023105 62 227 6.0 13.0 0.00 0.02 0.00 88 1013.1
20260904022556 62 186 4.0 11.0 0.00 0.02 0.00 88 1013.1
20260904022056 62 167 6.0 11.0 0.00 0.02 0.00 88 1013.1
20260904021557 62 180 4.0 10.0 0.00 0.02 0.00 88 1013.0
20260904021056 62 238 6.0 10.0 0.00 0.02 0.00 88 1013.0
20260904020556 62 225 4.0 10.0 0.00 0.02 0.00 88 1013.1
20260904020056 62 219 4.0 15.0 0.00 0.02 0.00 88 1013.1
20260904015555 62 238 4.0 8.0 0.00 0.02 0.00 88 1013.1
20260904015056 62 215 5.0 10.0 0.00 0.02 0.00 88 1013.0
20260904014557 62 237 5.0 10.0 0.00 0.02 0.00 88 1013.0
20260904014056 62 192 4.0 10.0 0.00 0.02 0.00 88 1013.0
20260904013556 62 228 4.0 11.0 0.00 0.02 0.00 88 1012.9
20260904013056 62 213 4.0 10.0 0.00 0.02 0.00 88 1012.8
20260904012556 62 207 4.0 10.0 0.00 0.02 0.00 88 1012.8
20260904012056 62 223 6.0 10.0 0.00 0.02 0.00 88 1012.9
20260904011557 62 221 3.0 11.0 0.00 0.02 0.00 88 1012.8
20260904011055 62 219 4.0 10.0 0.00 0.02 0.00 88 1012.8
20260904010555 62 163 5.0 11.0 0.00 0.02 0.00 88 1012.9
20260904005557 63 210 4.0 8.0 0.00 0.02 0.00 88 1013.0
20260904005057 63 239 4.0 10.0 0.00 0.02 0.00 88 1013.0
20260904004601 63 223 6.0 10.0 0.00 0.02 0.00 88 1013.1
20260904004056 63 197 3.0 9.0 0.00 0.02 0.00 88 1013.1
20260904003555 63 217 4.0 10.0 0.00 0.02 0.00 88 1013.1
20260904003056 63 217 4.0 10.0 0.00 0.02 0.00 88 1013.1
20260904002557 63 229 3.0 8.0 0.00 0.02 0.00 88 1013.2
20260904002100 63 202 3.0 14.0 0.00 0.02 0.00 88 1013.3
20260904001559 63 193 7.0 14.0 0.00 0.02 0.00 88 1013.4
20260904001056 62 225 5.0 12.0 0.00 0.02 0.00 88 1013.4
20260904000555 62 225 4.0 9.0 0.00 0.02 0.00 88 1013.3
20260904000133 62 209 5.0 15.0 0.00 0.02 0.00 88 1013.3
20260903235559 62 215 6.0 15.0 0.00 0.02 0.00 88 1013.4
20260903235101 62 227 4.0 11.0 0.00 0.02 0.00 88 1013.3
20260903234556 62 214 6.0 11.0 0.00 0.02 0.00 88 1013.4
20260903234057 62 236 4.0 9.0 0.00 0.02 0.00 88 1013.5
20260903233557 62 228 3.0 9.0 0.00 0.02 0.00 88 1013.4
20260903233101 62 196 5.0 10.0 0.00 0.02 0.00 88 1013.5
20260903232556 62 209 5.0 10.0 0.00 0.02 0.00 88 1013.5
20260903232056 62 196 4.0 9.0 0.00 0.02 0.00 88 1013.5
20260903231557 62 179 4.0 8.0 0.00 0.02 0.00 88 1013.5
20260903231057 61 219 4.0 8.0 0.00 0.02 0.00 88 1013.5
20260903230558 61 234 3.0 7.0 0.00 0.02 0.00 88 1013.6
20260903225558 61 204 4.0 8.0 0.00 0.02 0.00 88 1013.7
20260903225057 61 173 2.0 6.0 0.00 0.02 0.00 88 1013.7
20260903224608 61 211 3.0 6.0 0.00 0.02 0.00 88 1013.7
20260903224059 60 212 4.0 6.0 0.00 0.02 0.00 88 1013.7
20260903223600 60 170 3.0 6.0 0.00 0.02 0.00 88 1013.7
20260903223057 60 158 2.0 7.0 0.00 0.02 0.00 88 1013.7
20260903222558 60 214 3.0 7.0 0.00 0.02 0.00 88 1013.7
20260903222101 60 200 3.0 5.0 0.00 0.02 0.00 88 1013.9
20260903221559 60 205 1.0 4.0 0.00 0.02 0.00 88 1014.0
20260903221057 60 151 0.0 3.0 0.01 0.02 0.00 88 1014.0
20260903220558 60 223 0.0 3.0 0.01 0.02 0.00 88 1014.0
20260903220119 61 213 1.0 4.0 0.02 0.02 0.00 88 1014.0
20260903220003 61 209 1.0 4.0 0.02 0.02 0.00 88 1014.0
20260903215603 61 175 0.0 3.0 0.02 0.02 0.02 88 1014.0
20260903215059 61 204 1.0 4.0 0.02 0.02 0.02 88 1013.9
20260903214600 61 202 1.0 4.0 0.02 0.02 0.02 88 1013.9
20260903214059 61 205 1.0 4.0 0.02 0.02 0.02 88 1014.0
20260903213603 61 186 1.0 4.0 0.02 0.02 0.02 88 1014.0
20260903213101 61 217 0.0 3.0 0.02 0.02 0.02 88 1014.1
20260903212559 61 192 1.0 4.0 0.02 0.02 0.02 88 1014.0
20260903212059 61 134 1.0 4.0 0.02 0.02 0.02 88 1014.1
20260903211618 61 173 0.0 3.0 0.02 0.02 0.02 88 1014.1
20260903211100 61 137 0.0 3.0 0.01 0.02 0.02 88 1014.4
20260903210559 61 292 1.0 4.0 0.00 0.01 0.01 88 1014.4
20260903210103 61 300 1.0 4.0 0.00 0.01 0.01 88 1014.3
20260903205558 61 297 0.0 4.0 0.00 0.01 0.01 88 1014.4
20260903205059 61 290 1.0 4.0 0.01 0.01 0.01 88 1014.3
20260903204559 61 269 0.0 0.0 0.01 0.01 0.01 88 1014.2
20260903204100 61 290 0.0 0.0 0.01 0.01 0.01 88 1014.2
20260903203559 62 290 0.0 0.0 0.01 0.01 0.01 88 1014.1
20260903203059 62 214 0.0 1.0 0.01 0.01 0.01 88 1014.1
20260903202559 62 209 0.0 1.0 0.01 0.01 0.01 88 1014.1
20260903202059 62 192 0.0 1.0 0.01 0.01 0.01 88 1014.1
20260903201600 62 124 0.0 1.0 0.01 0.01 0.01 88 1014.2
20260903201058 62 225 0.0 0.0 0.01 0.01 0.01 87 1014.2
20260903201002 62 225 0.0 0.0 0.01 0.01 0.01 87 1014.2
20260903200558 62 225 0.0 0.0 0.01 0.01 0.01 87 1014.3
20260903200059 62 225 0.0 0.0 0.01 0.01 0.01 87 1014.3
20260903195600 62 202 0.0 2.0 0.01 0.01 0.01 87 1014.4
20260903195058 62 138 0.0 3.0 0.00 0.00 0.00 87 1014.5
20260903194558 62 153 0.0 3.0 0.00 0.00 0.00 87 1014.5
20260903194057 62 188 0.0 2.0 0.00 0.00 0.00 87 1014.6
20260903193602 62 209 0.0 2.0 0.00 0.00 0.00 87 1014.6
20260903193058 62 304 0.0 0.0 0.00 0.00 0.00 87 1014.5
20260903192558 62 304 0.0 0.0 0.00 0.00 0.00 86 1014.5
20260903192057 63 304 0.0 0.0 0.00 0.00 0.00 86 1014.5
20260903191558 63 304 0.0 0.0 0.00 0.00 0.00 86 1014.6
20260903191058 63 214 0.0 0.0 0.00 0.00 0.00 85 1014.7
20260903190559 64 331 0.0 1.0 0.00 0.00 0.00 84 1014.7
20260903190100 64 78 0.0 2.0 0.00 0.00 0.00 82 1014.8
20260903185558 65 304 0.0 2.0 0.00 0.00 0.00 81 1014.9
20260903185058 65 246 0.0 3.0 0.00 0.00 0.00 80 1014.8
20260903184603 65 225 0.0 4.0 0.00 0.00 0.00 78 1014.9
20260903184059 65 243 1.0 4.0 0.00 0.00 0.00 77 1015.1
20260903183558 65 216 0.0 3.0 0.00 0.00 0.00 77 1014.9
20260903183058 65 184 1.0 3.0 0.00 0.00 0.00 77 1014.9
20260903182557 65 217 1.0 4.0 0.00 0.00 0.00 77 1015.0
20260903182058 65 194 2.0 4.0 0.00 0.00 0.00 77 1015.0
20260903181558 65 196 1.0 3.0 0.00 0.00 0.00 77 1015.1
20260903181058 65 165 1.0 5.0 0.00 0.00 0.00 77 1015.1
20260903180559 66 176 0.0 3.0 0.00 0.00 0.00 76 1015.2
20260903180108 66 233 1.0 4.0 0.00 0.00 0.00 76 1015.2
20260903175557 66 193 2.0 5.0 0.00 0.00 0.00 75 1015.2
20260903175058 66 172 2.0 5.0 0.00 0.00 0.00 75 1015.3
20260903174659 66 207 2.0 5.0 0.00 0.00 0.00 75 1015.3
20260903174101 66 225 1.0 4.0 0.00 0.00 0.00 74 1015.2
20260903173557 66 193 2.0 5.0 0.00 0.00 0.00 73 1015.2
20260903173106 66 176 2.0 6.0 0.00 0.00 0.00 73 1015.3
20260903172557 66 200 1.0 6.0 0.00 0.00 0.00 73 1015.3
20260903172058 67 154 2.0 9.0 0.00 0.00 0.00 72 1015.2
20260903171602 67 202 2.0 8.0 0.00 0.00 0.00 72 1015.3
20260903171058 67 191 3.0 8.0 0.00 0.00 0.00 72 1015.3
20260903170558 67 163 4.0 7.0 0.00 0.00 0.00 71 1015.4
20260903170110 67 204 3.0 9.0 0.00 0.00 0.00 71 1015.4
20260903165558 67 203 4.0 10.0 0.00 0.00 0.00 70 1015.4
20260903165058 68 209 4.0 10.0 0.00 0.00 0.00 70 1015.4
20260903164558 68 253 5.0 14.0 0.00 0.00 0.00 70 1015.3
20260903164507 68 205 4.0 14.0 0.00 0.00 0.00 70 1015.3
20260903164058 68 221 4.0 14.0 0.00 0.00 0.00 69 1015.4
20260903163559 68 205 6.0 10.0 0.00 0.00 0.00 69 1015.4
20260903163101 68 209 4.0 9.0 0.00 0.00 0.00 69 1015.6
20260903162558 68 218 3.0 9.0 0.00 0.00 0.00 69 1015.6
20260903162058 68 227 2.0 8.0 0.00 0.00 0.00 69 1015.5
20260903161558 68 216 5.0 8.0 0.00 0.00 0.00 68 1015.5
20260903161059 68 219 3.0 9.0 0.00 0.00 0.00 68 1015.6
20260903160558 69 216 5.0 10.0 0.00 0.00 0.00 67 1015.6
20260903160059 69 179 4.0 14.0 0.00 0.00 0.00 67 1015.6
20260903155558 69 221 6.0 14.0 0.00 0.00 0.00 66 1015.6
20260903155059 69 220 5.0 14.0 0.00 0.00 0.00 66 1015.7
20260903154600 69 209 4.0 11.0 0.00 0.00 0.00 66 1015.7
20260903154058 69 232 6.0 12.0 0.00 0.00 0.00 66 1015.9
20260903153558 69 235 8.0 12.0 0.00 0.00 0.00 65 1015.9
20260903153058 69 217 5.0 10.0 0.00 0.00 0.00 67 1015.9
20260903152600 69 204 4.0 10.0 0.00 0.00 0.00 66 1016.0
20260903152058 69 221 5.0 11.0 0.00 0.00 0.00 66 1016.0
20260903151559 69 200 7.0 11.0 0.00 0.00 0.00 67 1016.1
20260903151059 69 188 4.0 10.0 0.00 0.00 0.00 67 1016.0
20260903150558 69 197 4.0 10.0 0.00 0.00 0.00 67 1016.0
20260903150113 69 214 5.0 11.0 0.00 0.00 0.00 68 1016.1
20260903145558 69 202 6.0 11.0 0.00 0.00 0.00 67 1016.2
20260903145057 69 184 4.0 12.0 0.00 0.00 0.00 67 1016.2
20260903144558 69 225 6.0 12.0 0.00 0.00 0.00 68 1016.3
20260903144059 69 229 4.0 11.0 0.00 0.00 0.00 69 1016.4
20260903143558 69 219 5.0 11.0 0.00 0.00 0.00 69 1016.5
20260903143058 69 186 6.0 11.0 0.00 0.00 0.00 70 1016.5
20260903142558 69 182 5.0 9.0 0.00 0.00 0.00 71 1016.7
20260903142057 69 209 3.0 9.0 0.00 0.00 0.00 72 1016.7
20260903141558 69 194 3.0 9.0 0.00 0.00 0.00 72 1016.7
20260903141057 69 215 4.0 8.0 0.00 0.00 0.00 71 1016.8
20260903140558 69 207 4.0 8.0 0.00 0.00 0.00 72 1016.8
20260903140058 69 163 4.0 8.0 0.00 0.00 0.00 71 1016.9
20260903135600 69 207 3.0 8.0 0.00 0.00 0.00 72 1017.0
20260903135058 69 188 4.0 6.0 0.00 0.00 0.00 73 1017.0
20260903134600 69 174 3.0 6.0 0.00 0.00 0.00 73 1017.1
20260903134102 69 215 2.0 5.0 0.00 0.00 0.00 73 1017.1
20260903133602 69 207 2.0 5.0 0.00 0.00 0.00 72 1017.2
20260903133058 68 197 2.0 5.0 0.00 0.00 0.00 72 1017.3
20260903132558 68 193 3.0 6.0 0.00 0.00 0.00 72 1017.3
20260903132057 68 161 2.0 6.0 0.00 0.00 0.00 72 1017.5
20260903131601 68 217 2.0 5.0 0.00 0.00 0.00 73 1017.4
20260903131059 67 248 2.0 7.0 0.00 0.00 0.00 72 1017.4
20260903130559 67 225 4.0 7.0 0.00 0.00 0.00 71 1017.4
20260903130114 68 211 4.0 9.0 0.00 0.00 0.00 70 1017.5
20260903125600 68 221 4.0 14.0 0.00 0.00 0.00 70 1017.5
20260903125100 69 223 8.0 15.0 0.00 0.00 0.00 67 1017.6
20260903124610 70 169 8.0 14.0 0.00 0.00 0.00 64 1017.6
20260903124058 70 221 5.0 8.0 0.00 0.00 0.00 62 1017.4
20260903123559 71 220 3.0 10.0 0.00 0.00 0.00 61 1017.4
20260903123059 71 199 4.0 8.0 0.00 0.00 0.00 60 1017.5
20260903122602 71 178 4.0 11.0 0.00 0.00 0.00 60 1017.5
20260903122059 71 221 7.0 11.0 0.00 0.00 0.00 58 1017.6
20260903121559 71 221 7.0 14.0 0.00 0.00 0.00 58 1017.6
20260903121100 71 169 6.0 14.0 0.00 0.00 0.00 58 1017.6
20260903120602 72 188 2.0 10.0 0.00 0.00 0.00 60 1017.6
20260903120059 71 219 4.0 12.0 0.00 0.00 0.00 59 1017.7
20260903115557 72 230 7.0 12.0 0.00 0.00 0.00 58 1017.7
20260903115100 72 205 4.0 10.0 0.00 0.00 0.00 60 1017.7
20260903114602 71 229 5.0 10.0 0.00 0.00 0.00 60 1017.7
20260903114057 71 209 5.0 9.0 0.00 0.00 0.00 59 1017.8
20260903113557 71 205 5.0 10.0 0.00 0.00 0.00 60 1017.8
20260903113100 71 158 5.0 12.0 0.00 0.00 0.00 60 1017.9
20260903112600 70 180 3.0 9.0 0.00 0.00 0.00 62 1018.0
20260903112057 71 229 2.0 9.0 0.00 0.00 0.00 60 1018.0
20260903111624 71 234 3.0 9.0 0.00 0.00 0.00 60 1018.1
20260903111059 71 220 4.0 9.0 0.00 0.00 0.00 59 1018.1
20260903110557 71 55 4.0 9.0 0.00 0.00 0.00 60 1018.1
20260903110110 71 232 4.0 9.0 0.00 0.00 0.00 59 1018.2
20260903105559 71 205 4.0 12.0 0.00 0.00 0.00 60 1018.2
20260903105058 71 213 6.0 10.0 0.00 0.00 0.00 59 1018.2
20260903104631 71 207 5.0 14.0 0.00 0.00 0.00 60 1018.2
20260903104057 71 213 5.0 13.0 0.00 0.00 0.00 60 1018.3
20260903103559 71 202 3.0 10.0 0.00 0.00 0.00 60 1018.2
20260903103057 71 220 5.0 10.0 0.00 0.00 0.00 60 1018.3
20260903102601 70 225 4.0 9.0 0.00 0.00 0.00 60 1018.3
20260903102058 71 214 6.0 9.0 0.00 0.00 0.00 59 1018.4
20260903101557 71 188 3.0 11.0 0.00 0.00 0.00 59 1018.4
20260903101058 71 197 5.0 11.0 0.00 0.00 0.00 58 1018.4
20260903100601 71 210 6.0 11.0 0.00 0.00 0.00 59 1018.4
20260903100058 71 221 4.0 9.0 0.00 0.00 0.00 59 1018.4
20260903095558 72 194 4.0 9.0 0.00 0.00 0.00 59 1018.5
20260903095058 72 246 4.0 12.0 0.00 0.00 0.00 60 1018.6
20260903094606 71 257 4.0 12.0 0.00 0.00 0.00 61 1018.7
20260903094058 72 220 2.0 10.0 0.00 0.00 0.00 61 1018.7
20260903093559 70 200 2.0 9.0 0.00 0.00 0.00 62 1018.8
20260903093057 70 191 5.0 9.0 0.00 0.00 0.00 63 1018.8
20260903092559 70 198 3.0 7.0 0.00 0.00 0.00 65 1018.8
20260903092058 70 260 4.0 8.0 0.00 0.00 0.00 65 1018.8
20260903091558 69 275 3.0 13.0 0.00 0.00 0.00 64 1018.9
20260903091100 70 223 8.0 13.0 0.00 0.00 0.00 63 1019.0
20260903090558 70 200 4.0 10.0 0.00 0.00 0.00 64 1018.9
20260903090058 70 216 6.0 10.0 0.00 0.00 0.00 64 1019.0
20260903085556 70 205 6.0 10.0 0.00 0.00 0.00 64 1018.9
20260903085101 70 192 3.0 9.0 0.00 0.00 0.00 65 1018.9
20260903084557 70 159 4.0 11.0 0.00 0.00 0.00 65 1018.9
20260903084100 70 196 5.0 11.0 0.00 0.00 0.00 63 1019.0
20260903083558 69 163 3.0 8.0 0.00 0.00 0.00 67 1019.0
20260903083059 69 215 0.0 7.0 0.00 0.00 0.00 67 1019.1
20260903082557 68 213 4.0 8.0 0.00 0.00 0.00 69 1019.2
20260903082058 68 202 3.0 9.0 0.00 0.00 0.00 71 1019.2
20260903081600 68 269 3.0 7.0 0.00 0.00 0.00 70 1019.1
20260903081057 67 195 3.0 7.0 0.00 0.00 0.00 71 1019.2
20260903081002 67 220 4.0 7.0 0.00 0.00 0.00 71 1019.2
20260903080604 68 225 1.0 7.0 0.00 0.00 0.00 72 1019.2
20260903080058 67 225 3.0 9.0 0.00 0.00 0.00 73 1019.2
20260903075601 66 207 2.0 9.0 0.00 0.00 0.00 74 1019.2
20260903075058 66 205 3.0 8.0 0.00 0.00 0.00 76 1019.2
20260903074603 66 218 3.0 8.0 0.00 0.00 0.00 76 1019.3
20260903074058 65 150 1.0 8.0 0.00 0.00 0.00 77 1019.3
20260903073558 65 188 3.0 7.0 0.00 0.00 0.00 78 1019.4
20260903073105 64 205 4.0 8.0 0.00 0.00 0.00 78 1019.4
20260903072600 64 209 4.0 9.0 0.00 0.00 0.00 79 1019.4
20260903072057 64 193 4.0 9.0 0.00 0.00 0.00 79 1019.4
20260903071604 63 202 3.0 8.0 0.00 0.00 0.00 81 1019.4
20260903071058 63 258 2.0 8.0 0.00 0.00 0.00 82 1019.5
20260903070559 62 211 4.0 8.0 0.00 0.00 0.00 82 1019.4
20260903070100 62 204 3.0 6.0 0.00 0.00 0.00 84 1019.4
20260903065558 62 190 2.0 6.0 0.00 0.00 0.00 85 1019.5
20260903065057 61 117 2.0 6.0 0.00 0.00 0.00 85 1019.4
20260903064558 61 173 2.0 5.0 0.00 0.00 0.00 86 1019.5
20260903064058 60 153 1.0 5.0 0.00 0.00 0.00 88 1019.5
20260903063601 60 202 2.0 7.0 0.00 0.00 0.00 88 1019.6
20260903063058 59 173 3.0 7.0 0.00 0.00 0.00 88 1019.6
20260903062558 58 177 2.0 4.0 0.00 0.00 0.00 87 1019.6
20260903062058 58 171 1.0 5.0 0.00 0.00 0.00 86 1019.6
20260903061604 57 158 2.0 5.0 0.00 0.00 0.00 84 1019.6
20260903061057 56 174 2.0 6.0 0.00 0.00 0.00 84 1019.6
20260903060557 56 184 3.0 6.0 0.00 0.00 0.00 84 1019.6
20260903060100 55 178 3.0 6.0 0.00 0.00 0.00 84 1019.6